Weather History for KGWR - April, 2013

Change the Weather History Date:

Monday, April 15, 2013

  Actual Average (KP67) Record (KP67)
Temperature  
Mean Temperature 32 °F -  
Max Temperature 35 °F 49 °F 48 °F (1998)
Min Temperature 30 °F 29 °F 28 °F (1997)
Degree Days  
Heating Degree Days 32    
Moisture  
Dew Point 32 °F    
Average Humidity 94    
Maximum Humidity 100    
Minimum Humidity 81    
Precipitation  
Precipitation 0.00 in - - ()
Sea Level Pressure  
Sea Level Pressure 29.66 in    
Wind  
Wind Speed 18 mph (NW)    
Max Wind Speed 24 mph    
Max Gust Speed 30 mph    
Visibility 6 miles    
Events      
Averages and records for this station are not official NWS values.
T = Trace of Precipitation, MM = Missing Value Source: NWS Daily Summary

Daily Weather History Graph

Daily Weather History Graph

Search for Another Location

Airport or City:

Trip Planner

Search our weather history database for the weather conditions in past years. The results will help you decide how hot, cold, wet, or windy it might be!

Date:

Astronomy

Apr. 15, 2013 Rise Set
Actual Time 6:43 AM CDT 8:18 PM CDT
Civil Twilight 6:12 AM CDT 8:49 PM CDT
Nautical Twilight 5:33 AM CDT 9:28 PM CDT
Astronomical Twilight 4:52 AM CDT 10:09 PM CDT
Moon 10:00 AM CDT (4/15) 12:41 AM CDT (4/15)
Length of Visible Light 14h 37m
Length of Day
13h 34m
Waxing Crescent, 25% of the Moon is Illuminated
Apr 15
Waxing Crescent
Apr 18
First Quarter
Apr 25
Full
May 2
Last Quarter
May 9
New

Hourly Weather History & Observations

Time (CDT) Temp. Windchill Dew Point Humidity Pressure Visibility Wind Dir Wind Speed Gust Speed Precip Events Conditions
12:15 AM 32.0 °F 20.8 °F 32.0 °F 100% 29.41 in 1.0 mi NNE 17.3 mph - 0.00 in   Overcast
12:35 AM 32.0 °F 20.5 °F 32.0 °F 100% 29.41 in 1.2 mi North 18.4 mph - 0.00 in   Unknown
12:55 AM 32.0 °F 20.5 °F 32.0 °F 100% 29.40 in 0.8 mi North 18.4 mph - 0.00 in   Unknown
1:15 AM 32.0 °F 20.1 °F 32.0 °F 100% 29.40 in 1.2 mi North 19.6 mph - 0.00 in   Unknown
1:35 AM 32.0 °F 19.8 °F 32.0 °F 100% 29.40 in 1.5 mi North 20.7 mph - 0.00 in   Unknown
1:55 AM 32.0 °F 20.1 °F 32.0 °F 100% 29.40 in 1.0 mi North 19.6 mph - 0.00 in   Overcast
2:15 AM 32.0 °F 20.5 °F 32.0 °F 100% 29.39 in 1.2 mi North 18.4 mph - 0.00 in   Overcast
2:35 AM 32.0 °F 20.8 °F 32.0 °F 100% 29.39 in 0.8 mi North 17.3 mph - 0.00 in   Overcast
2:55 AM 32.0 °F 21.2 °F 32.0 °F 100% 29.39 in 0.8 mi North 16.1 mph - 0.00 in   Overcast
3:15 AM 32.0 °F 21.2 °F 32.0 °F 100% 29.39 in 0.8 mi North 16.1 mph - 0.00 in   Unknown
3:35 AM 32.0 °F 21.6 °F 32.0 °F 100% 29.40 in 1.2 mi North 15.0 mph - 0.00 in   Unknown
3:55 AM 32.0 °F 22.5 °F 32.0 °F 100% 29.41 in 1.5 mi North 12.7 mph - 0.00 in   Overcast
4:15 AM 32.0 °F 21.6 °F 32.0 °F 100% 29.41 in 2.5 mi NNW 15.0 mph - 0.00 in   Overcast
4:35 AM 32.0 °F 22.1 °F 32.0 °F 100% 29.42 in 3.0 mi NNW 13.8 mph - 0.00 in   Overcast
4:55 AM 32.0 °F 22.5 °F 32.0 °F 100% 29.43 in 5.0 mi NNW 12.7 mph - 0.00 in   Overcast
5:15 AM 32.0 °F 22.1 °F 32.0 °F 100% 29.44 in 2.5 mi NNW 13.8 mph - 0.00 in   Overcast
5:35 AM 32.0 °F 22.1 °F 32.0 °F 100% 29.44 in 1.8 mi NW 13.8 mph - 0.00 in   Overcast
5:55 AM 32.0 °F 20.8 °F 32.0 °F 100% 29.44 in 2.0 mi NW 17.3 mph - 0.00 in   Overcast
6:15 AM 32.0 °F 21.2 °F 32.0 °F 100% 29.45 in 1.8 mi NW 16.1 mph - 0.00 in   Overcast
6:35 AM 32.0 °F 20.8 °F 32.0 °F 100% 29.46 in 1.5 mi NW 17.3 mph - 0.00 in   Overcast
6:55 AM 32.0 °F 20.8 °F 32.0 °F 100% 29.46 in 1.0 mi NW 17.3 mph - 0.00 in   Overcast
7:15 AM 32.0 °F 20.1 °F 32.0 °F 100% 29.47 in 0.8 mi NW 19.6 mph - 0.00 in   Unknown
7:35 AM 32.0 °F 20.1 °F 32.0 °F 100% 29.48 in 1.0 mi NW 19.6 mph - 0.00 in   Overcast
7:55 AM 32.0 °F 20.5 °F 32.0 °F 100% 29.50 in 2.0 mi NW 18.4 mph - 0.00 in   Overcast
8:15 AM 32.0 °F 19.8 °F 32.0 °F 100% 29.51 in 0.5 mi NW 20.7 mph - 0.00 in   Overcast
8:35 AM 32.0 °F 20.8 °F 32.0 °F 100% 29.52 in 2.5 mi NW 17.3 mph - 0.00 in   Overcast
8:55 AM 32.0 °F 20.8 °F 32.0 °F 100% 29.54 in 3.0 mi WNW 17.3 mph - 0.00 in   Overcast
9:15 AM 32.0 °F 21.2 °F 32.0 °F 100% 29.55 in 8.0 mi WNW 16.1 mph - 0.00 in   Overcast
9:35 AM 32.0 °F 21.6 °F 32.0 °F 100% 29.56 in 9.0 mi WNW 15.0 mph - 0.00 in   Overcast
9:55 AM 32.0 °F 20.5 °F 32.0 °F 100% 29.57 in 5.0 mi NW 18.4 mph - 0.00 in   Overcast
10:15 AM 32.0 °F 20.5 °F 32.0 °F 100% 29.58 in 2.5 mi WNW 18.4 mph - 0.00 in   Overcast
10:35 AM 32.0 °F 20.8 °F 32.0 °F 100% 29.60 in 1.5 mi WNW 17.3 mph 24.2 mph 0.00 in   Overcast
10:55 AM 32.0 °F 20.5 °F 32.0 °F 100% 29.61 in 2.0 mi WNW 18.4 mph - 0.00 in   Overcast
11:15 AM 32.0 °F 20.1 °F 32.0 °F 100% 29.62 in 1.5 mi WNW 19.6 mph - 0.00 in   Overcast
11:35 AM 33.8 °F 23.2 °F 33.8 °F 100% 29.64 in 4.0 mi WNW 17.3 mph 23.0 mph 0.00 in   Mostly Cloudy
11:55 AM 33.8 °F 22.5 °F 33.8 °F 100% 29.66 in 6.0 mi WNW 19.6 mph - 0.00 in   Scattered Clouds
12:15 PM 33.8 °F 22.5 °F 33.8 °F 100% 29.66 in 5.0 mi WNW 19.6 mph - 0.00 in   Scattered Clouds
12:35 PM 33.8 °F 22.2 °F 32.0 °F 93% 29.68 in 10.0 mi WNW 20.7 mph 25.3 mph 0.00 in   Scattered Clouds
12:55 PM 35.6 °F 24.5 °F 32.0 °F 87% 29.69 in 5.0 mi WNW 20.7 mph 25.3 mph 0.00 in   Mostly Cloudy
1:15 PM 35.6 °F 24.2 °F 32.0 °F 87% 29.71 in 7.0 mi WNW 21.9 mph - 0.00 in   Mostly Cloudy
1:35 PM 35.6 °F 24.5 °F 32.0 °F 87% 29.72 in 10.0 mi WNW 20.7 mph 28.8 mph 0.00 in   Overcast
1:55 PM 35.6 °F 24.0 °F 32.0 °F 87% 29.72 in 10.0 mi WNW 23.0 mph 27.6 mph 0.00 in   Overcast
2:15 PM 35.6 °F 24.5 °F 32.0 °F 87% 29.74 in 8.0 mi WNW 20.7 mph 25.3 mph 0.00 in   Overcast
2:35 PM 35.6 °F 24.8 °F 32.0 °F 87% 29.75 in 10.0 mi WNW 19.6 mph - 0.00 in   Overcast
2:55 PM 35.6 °F 24.8 °F 32.0 °F 87% 29.76 in 10.0 mi WNW 19.6 mph 28.8 mph 0.00 in   Mostly Cloudy
3:15 PM 35.6 °F 25.2 °F 32.0 °F 87% 29.77 in 10.0 mi WNW 18.4 mph - 0.00 in   Mostly Cloudy
3:35 PM 35.6 °F 24.5 °F 32.0 °F 87% 29.77 in 10.0 mi WNW 20.7 mph 25.3 mph 0.00 in   Mostly Cloudy
3:55 PM 35.6 °F 24.5 °F 32.0 °F 87% 29.78 in 10.0 mi NW 20.7 mph 27.6 mph 0.00 in   Mostly Cloudy
4:15 PM 35.6 °F 24.2 °F 32.0 °F 87% 29.79 in 10.0 mi NW 21.9 mph 27.6 mph 0.00 in   Mostly Cloudy
4:35 PM 35.6 °F 24.5 °F 32.0 °F 87% 29.80 in 10.0 mi NW 20.7 mph 26.5 mph 0.00 in   Mostly Cloudy
4:55 PM 35.6 °F 24.2 °F 32.0 °F 87% 29.81 in 10.0 mi NW 21.9 mph 28.8 mph 0.00 in   Scattered Clouds
5:15 PM 35.6 °F 23.7 °F 32.0 °F 87% 29.81 in 10.0 mi NW 24.2 mph 29.9 mph 0.00 in   Mostly Cloudy
5:35 PM 35.6 °F 25.5 °F 32.0 °F 87% 29.84 in 10.0 mi NW 17.3 mph 27.6 mph 0.00 in   Scattered Clouds
5:55 PM 35.6 °F 25.9 °F 32.0 °F 87% 29.86 in 10.0 mi NW 16.1 mph - 0.00 in   Mostly Cloudy
6:15 PM 33.8 °F 21.6 °F 30.2 °F 87% 29.87 in 10.0 mi WNW 23.0 mph 27.6 mph 0.00 in   Overcast
6:35 PM 33.8 °F 22.8 °F 32.0 °F 93% 29.88 in 10.0 mi NW 18.4 mph - 0.00 in   Overcast
6:55 PM 33.8 °F 22.5 °F 32.0 °F 93% 29.89 in 10.0 mi NW 19.6 mph - 0.00 in   Overcast
7:15 PM 33.8 °F 23.2 °F 32.0 °F 93% 29.90 in 10.0 mi NW 17.3 mph - 0.00 in   Overcast
7:35 PM 33.8 °F 23.2 °F 32.0 °F 93% 29.91 in 10.0 mi NW 17.3 mph - 0.00 in   Overcast
7:55 PM 33.8 °F 21.6 °F 30.2 °F 87% 29.92 in 10.0 mi NW 23.0 mph 26.5 mph 0.00 in   Overcast
8:15 PM 33.8 °F 23.2 °F 28.4 °F 81% 29.94 in 10.0 mi NW 17.3 mph - 0.00 in   Overcast
8:35 PM 33.8 °F 22.8 °F 28.4 °F 81% 29.96 in 10.0 mi WNW 18.4 mph - 0.00 in   Overcast
8:55 PM 32.0 °F 20.5 °F 30.2 °F 93% 29.96 in 10.0 mi NW 18.4 mph - 0.00 in   Overcast
9:35 PM 32.0 °F 20.8 °F 28.4 °F 87% 29.98 in 10.0 mi NW 17.3 mph 24.2 mph 0.00 in   Overcast
9:55 PM 32.0 °F 21.6 °F 28.4 °F 87% 30.00 in 10.0 mi NW 15.0 mph - 0.00 in   Mostly Cloudy
10:15 PM 32.0 °F 21.2 °F 28.4 °F 87% 30.01 in 10.0 mi WNW 16.1 mph - 0.00 in   Overcast
10:35 PM 32.0 °F 21.2 °F 28.4 °F 87% 30.00 in 10.0 mi NW 16.1 mph - 0.00 in   Overcast
10:55 PM 32.0 °F 23.6 °F 30.2 °F 93% 30.02 in 10.0 mi WNW 10.4 mph - 0.00 in   Overcast
11:15 PM 32.0 °F 23.0 °F 30.2 °F 93% 30.03 in 10.0 mi WNW 11.5 mph - 0.00 in   Mostly Cloudy
11:35 PM 30.2 °F 20.2 °F 28.4 °F 93% 30.03 in 10.0 mi WNW 12.7 mph - 0.00 in   Clear
11:55 PM 30.2 °F 20.8 °F 28.4 °F 93% 30.04 in 10.0 mi WNW 11.5 mph - 0.00 in   Clear